This is the latest recevied weather packets stored in our database for station/object ZL1CTS-13. If no packets are shown the sender has not sent any weather packets the latest 10 day(s).
| Time | Temp. | Humidity | Pressure | Rain* | Wind** | Luminosity | Snow |
|---|---|---|---|---|---|---|---|
| 1788135270 | 15° C | 94% | 997.5 hPa | 0.76 mm | - | - | - |
| 1788135004 | 14.44° C | 94% | 997.6 hPa | 0.76 mm | - | - | - |
| 1788134705 | 14.44° C | 92% | 997.5 hPa | 0.76 mm | - | - | - |
| 1788134403 | 13.89° C | 88% | 997.6 hPa | 0.76 mm | - | - | - |
| 1788134104 | 15.56° C | 82% | 997.5 hPa | 0 mm | - | - | - |
| 1788133804 | 16.11° C | 83% | 997.4 hPa | 0 mm | - | - | - |
| 1788133504 | 16.11° C | 84% | 997.5 hPa | 0 mm | - | - | - |
| 1788133204 | 15.56° C | 90% | 997.3 hPa | 0 mm | - | - | - |
| 1788132904 | 15.56° C | 92% | 997.5 hPa | 0.25 mm | - | - | - |
| 1788132604 | 15° C | 93% | 997.4 hPa | 0.25 mm | - | - | - |
| 1788132304 | 13.89° C | 93% | 997.5 hPa | 0.25 mm | - | - | - |
| 1788132004 | 14.44° C | 93% | 997.7 hPa | 0.25 mm | - | - | - |
| 1788131704 | 13.89° C | 91% | 997.7 hPa | 0.25 mm | - | - | - |
| 1788131404 | 14.44° C | 91% | 997.7 hPa | 0.25 mm | - | - | - |
| 1788131104 | 15° C | 91% | 997.8 hPa | 0.25 mm | - | - | - |
| 1788130804 | 15° C | 91% | 997.5 hPa | 0.25 mm | - | - | - |
| 1788130503 | 15° C | 93% | 997.5 hPa | 0.25 mm | - | - | - |
| 1788130204 | 14.44° C | 93% | 997.5 hPa | 0.25 mm | - | - | - |
| 1788129904 | 13.33° C | 93% | 997.4 hPa | 0.25 mm | - | - | - |
| 1788129604 | 13.33° C | 90% | 997.6 hPa | 0.25 mm | - | - | - |
| 1788129304 | 14.44° C | 83% | 997.8 hPa | 0 mm | - | - | - |
| 1788129015 | 15.56° C | 80% | 997.5 hPa | 0 mm | - | - | - |
| 1788128703 | 15.56° C | 79% | 997.5 hPa | 0 mm | - | - | - |
| 1788128404 | 16.11° C | 80% | 997.4 hPa | 1.02 mm | - | - | - |
| 1788128104 | 15.56° C | 80% | 997.3 hPa | 1.02 mm | - | - | - |
* Rain latest hour (hover to see other rain measurements)
** Current wind speed in m/s (hover to see current wind gust speed)